Terug naar catalogus

STARLINK-36538

ActiefCommunicatieVLEO
NORAD 67512·PAYLOAD·🇺🇸 United States

Gelanceerd Jan 18, 2026 vanaf Cape Canaveral Space Force Station

Loading…

Volgende Passages (komende 24 uur)

TLE

VersSource: CelesTrak SupGP

Epoch: Sep 15, 2026, 03:27 UTC

1 67512C 26012V   26258.14423611  .00045899  00000+0  16623-2 0  2589
2 67512  43.0011 324.7001 0001309 266.6012  96.4310 15.27559059    17

Volg STARLINK-36538 in realtime met AllMySat

Download on the App Store